GW7183 Weather Reports


time (UTC)temp
C
wind
direction
speed
KPH
gust
KPH
rain 1hr
cm
rain 24hr
cm
rain mn
cm
humidity
%
barometer
mb
20260506103044 6 0 0.0 3.2 13.06 2.97 12.75 94 1006.5
20260506103016 6 311 0.0 3.2 0.13 4.09 1.14 94 1006.7
20260506103012 6 316 0.0 3.2 0.13 4.09 1.14 94 1006.6
20260506101603 6 0 0.0 3.2 19.61 2.97 12.75 94 1006.4
20260506101519 6 72 0.0 3.2 0.18 4.09 1.14 94 1006.7
20260506100048 6 0 0.0 3.2 16.36 2.95 12.42 94 1006.9
20260506100025 6 343 1.6 4.8 0.20 4.09 1.14 94 1007.2
20260506100006 6 349 1.6 4.8 0.20 4.09 1.14 94 1007.1
20260506094553 6 0 0.0 3.2 16.33 2.87 11.76 94 1007.5
20260506094509 6 301 1.6 4.8 0.15 4.04 1.09 94 1007.6
20260506094507 6 296 1.6 4.8 0.15 4.04 1.09 94 1007.7
20260506093051 6 0 0.0 4.8 15.47 2.84 11.35 94 1007.2
20260506093016 6 286 3.2 6.4 0.13 3.96 1.02 94 1007.6
20260506091546 6 0 0.0 3.2 16.33 2.77 10.79 94 1007.1
20260506091517 6 283 1.6 3.2 0.13 3.91 0.97 94 1007.3
20260506090058 6 0 0.0 3.2 22.86 2.77 10.79 94 1006.6
20260506090022 6 346 0.0 3.2 0.18 3.89 0.94 94 1006.8
20260506084557 6 0 0.0 3.2 20.62 2.72 10.13 93 1006.6
20260506084534 6 15 0.0 3.2 0.20 3.89 0.94 94 1006.9
20260506084522 6 8 0.0 3.2 0.20 3.89 0.94 94 1006.8
20260506083053 6 0 0.0 4.8 22.86 2.69 9.80 93 1007.2
20260506083016 6 325 3.2 6.4 0.23 3.84 0.89 94 1007.6
20260506083012 6 331 3.2 6.4 0.23 3.84 0.89 94 1007.5
20260506081549 6 0 0.0 4.8 22.89 2.62 9.14 93 1007.2
20260506081517 6 331 1.6 8.0 0.23 3.78 0.84 94 1007.5
20260506073047 6 0 0.0 3.2 19.61 24.64 7.52 93 1006.7
20260506073025 6 336 1.6 3.2 0.13 3.61 0.66 93 1006.9
20260506073010 6 342 1.6 3.2 0.13 3.61 0.66 93 1006.8
20260506071551 6 0 0.0 3.2 19.63 23.98 6.86 92 1006.7
20260506071513 6 338 1.6 3.2 0.15 3.56 0.61 93 1007.0
20260506061549 7 0 0.0 1.6 22.96 22.02 4.90 92 1006.8
20260506061528 7 65 0.0 1.6 0.25 3.40 0.46 93 1007.0
20260506061510 7 59 0.0 1.6 0.25 3.40 0.46 93 1006.9
20260506050105 7 0 0.0 3.2 22.86 19.41 22.86 93 1007.7
20260506044548 7 0 0.0 3.2 22.86 18.75 16.33 93 1007.6
20260506044529 7 325 1.6 3.2 0.20 3.10 0.15 93 1007.8
20260506044518 7 319 1.6 3.2 0.20 3.10 0.15 93 1007.9
20260506043044 7 0 0.0 4.8 22.89 18.08 9.83 92 1007.8
20260506043023 7 306 1.6 6.4 0.20 3.05 0.10 93 1008.0
20260506041559 8 13 0.0 4.8 19.63 17.42 3.30 93 1008.0
20260506041536 8 25 1.6 3.2 0.20 2.97 0.05 94 1008.2
20260506041527 8 18 1.6 3.2 0.20 2.97 0.05 94 1008.2
20260506040043 8 0 0.0 1.6 22.89 17.12 0.00 93 1008.2
20260506040026 8 298 0.0 4.8 0.23 2.95 0.00 94 1008.3
20260506040023 8 294 0.0 4.8 0.23 2.95 0.00 94 1008.5
20260506034552 8 0 0.0 3.2 22.91 16.46 16.46 93 1008.2
20260506034534 8 338 0.0 3.2 0.25 2.90 2.90 93 1008.5
20260506034512 8 344 0.0 3.2 0.25 2.90 2.90 93 1008.5
20260506033046 8 36 0.0 3.2 23.01 15.80 15.80 93 1008.6
20260506033020 8 2 0.0 6.4 0.33 2.84 2.84 93 1008.7
20260506033017 8 9 0.0 6.4 0.33 2.84 2.84 93 1008.7
20260506031551 8 0 0.0 4.8 19.81 15.14 15.14 93 1008.7
20260506031521 8 288 0.0 4.8 0.36 2.79 2.79 93 1008.8
20260506030050 8 0 0.0 3.2 23.11 14.81 14.81 93 1008.5
20260506030026 8 259 1.6 3.2 0.41 2.72 2.72 94 1008.6
20260506030022 8 262 1.6 3.2 0.41 2.72 2.72 94 1008.6
20260506024550 8 0 0.0 3.2 23.19 14.17 14.17 93 1008.1
20260506024530 8 360 0.0 4.8 0.51 2.64 2.64 94 1008.3
20260506024523 8 360 0.0 4.8 0.51 2.64 2.64 94 1008.2
20260506023048 8 0 0.0 0.0 23.22 13.51 13.51 93 1008.1
20260506023027 8 343 0.0 1.6 0.56 2.51 2.51 94 1008.1
20260506023018 8 349 0.0 1.6 0.56 2.51 2.51 94 1008.2
20260506021548 8 45 0.0 3.2 23.27 13.16 13.16 93 1008.0
20260506021522 8 330 1.6 3.2 0.58 2.44 2.44 94 1008.2
20260506021518 8 324 1.6 3.2 0.58 2.44 2.44 94 1008.2
20260506020052 8 0 0.0 0.0 23.22 12.50 12.50 93 1008.1
20260506020026 8 248 0.0 1.6 0.56 2.31 2.31 94 1008.3
20260506020004 8 245 0.0 1.6 0.56 2.31 2.31 94 1008.2
20260506014545 8 0 0.0 1.6 19.89 11.84 11.84 93 1008.1
20260506014508 8 244 0.0 1.6 0.41 2.13 2.13 94 1008.1
20260506013053 8 0 0.0 1.6 13.21 11.18 11.18 93 1008.0
20260506013023 8 253 0.0 3.2 0.23 1.96 1.96 94 1008.1
20260506013015 8 256 0.0 3.2 0.23 1.96 1.96 94 1008.0
20260506011543 8 0 0.0 3.2 13.13 10.85 10.85 93 1007.8
20260506011535 8 39 1.6 3.2 0.15 1.85 1.85 94 1007.5
20260506011524 8 45 1.6 3.2 0.15 1.85 1.85 94 1007.7
20260506010043 8 99 0.0 3.2 13.13 10.19 10.19 93 1007.6
20260506010025 8 69 1.6 3.2 0.13 1.75 1.75 93 1007.8
20260506010022 8 64 1.6 3.2 0.13 1.75 1.75 93 1007.6
20260506004546 8 0 0.0 3.2 16.41 9.86 9.86 93 1007.8
20260506004536 8 312 0.0 4.8 0.20 1.73 1.73 93 1007.7
20260506004505 8 333 0.0 4.8 0.20 1.73 1.73 93 1007.9
20260506003041 8 0 0.0 3.2 19.74 9.86 9.86 93 1007.5
20260506003011 8 32 1.6 3.2 0.30 1.73 1.73 93 1007.6
20260506003008 8 25 1.6 3.2 0.30 1.73 1.73 93 1007.4
20260506001553 8 88 0.0 3.2 23.16 9.53 9.53 93 1007.5
20260506001516 8 203 1.6 3.2 0.53 1.70 1.70 93 1007.7
20260506001511 8 202 1.6 3.2 0.53 1.70 1.70 93 1007.7
20260506000044 8 0 0.0 3.2 23.11 8.86 8.86 92 1007.9
20260506000022 8 270 0.0 6.4 0.51 1.63 1.63 93 1008.1
20260506000018 8 267 0.0 6.4 0.51 1.63 1.63 93 1008.0
20260505234550 8 0 0.0 3.2 18.14 8.20 8.20 92 1007.8
20260505234524 8 264 1.6 4.8 0.43 1.52 1.52 92 1008.0
20260505233052 8 0 0.0 11.3 19.74 7.87 7.87 91 1007.6
20260505233031 8 84 1.6 12.9 0.36 1.42 1.42 92 1007.9
20260505233011 8 98 1.6 14.5 0.36 1.42 1.42 92 1007.8
20260505231549 9 339 1.6 6.4 19.63 7.21 7.21 91 1007.7
20260505231513 9 277 3.2 8.0 0.18 1.17 1.17 92 1007.8
20260505231510 9 281 3.2 8.0 0.18 1.17 1.17 92 1007.8
20260505230111 9 0 0.0 3.2 16.38 6.55 6.55 91 1007.6
20260505230015 9 330 1.6 6.4 0.18 1.12 1.12 92 1007.6
20260505224547 10 35 0.0 3.2 16.38 6.22 6.22 92 1007.5
20260505224523 10 347 1.6 4.8 0.20 1.09 1.09 92 1007.4
20260505224520 10 341 1.6 4.8 0.20 1.09 1.09 92 1007.6
20260505223054 10 0 0.0 3.2 19.71 5.92 5.92 91 1007.7
20260505223024 10 308 1.6 3.2 0.36 1.07 1.07 92 1007.8
20260505223006 10 303 1.6 3.2 0.36 1.07 1.07 92 1007.9
20260505221557 10 0 0.0 9.7 16.61 5.26 5.26 90 1007.9
20260505221528 10 328 0.0 12.9 0.61 0.99 0.99 91 1007.9
20260505221510 10 307 0.0 14.5 0.61 0.99 0.99 91 1008.0
20260505220056 10 0 0.0 6.4 19.84 4.93 4.93 90 1007.5
20260505220029 10 304 3.2 9.7 0.56 0.94 0.94 91 1007.5
20260505220027 10 309 3.2 8.0 0.56 0.94 0.94 91 1007.5
20260505214546 11 359 4.8 14.5 19.86 4.60 4.60 89 1007.7
20260505214528 11 313 4.8 16.1 0.61 0.89 0.89 90 1007.7
20260505214521 11 308 4.8 17.7 0.61 0.89 0.89 90 1007.7
20260505213044 12 63 0.0 4.8 16.56 3.94 3.94 92 1007.1
20260505213024 12 56 1.6 6.4 0.48 0.71 0.71 92 1007.3
20260505213021 12 61 1.6 6.4 0.48 0.71 0.71 92 1007.3
20260505211557 12 0 0.0 3.2 13.08 3.58 3.58 91 1007.1
20260505211524 12 304 0.0 3.2 0.15 0.38 0.38 92 1007.2
20260505211507 12 298 0.0 3.2 0.15 0.38 0.38 92 1007.1
20260505210051 12 0 0.0 8.0 6.55 2.95 2.95 91 1007.0
20260505210013 12 291 0.0 9.7 0.18 0.38 0.38 91 1007.1
20260505204546 12 0 0.0 11.3 6.53 2.62 2.62 90 1007.4
20260505204519 12 291 1.6 11.3 0.08 0.28 0.28 91 1007.4
20260505203046 12 0 0.0 4.8 9.78 22.91 22.91 89 1007.2
20260505203021 12 297 3.2 6.4 0.05 0.23 0.23 89 1007.2
20260505203019 12 293 3.2 6.4 0.05 0.23 0.23 89 1007.1
20260505201549 13 0 0.0 4.8 16.31 22.91 22.91 89 1007.1
20260505201527 13 311 1.6 8.0 0.10 0.23 0.23 89 1007.1
20260505201524 13 306 1.6 9.7 0.10 0.23 0.23 89 1007.0
20260505200028 13 300 4.8 8.0 0.13 0.20 0.20 86 1007.2
20260505200015 13 295 4.8 9.7 0.13 0.20 0.20 86 1007.2
20260505194548 15 0 1.6 4.8 19.66 19.66 19.66 85 1007.1
20260505194520 15 331 1.6 6.4 0.18 0.20 0.20 85 1007.1
20260505194514 15 325 1.6 6.4 0.18 0.20 0.20 85 1007.1
20260505193102 15 0 0.0 1.6 13.13 13.13 13.13 83 1007.5
20260505193030 15 258 0.0 1.6 0.15 0.18 0.18 83 1007.4
20260505193018 15 255 0.0 1.6 0.15 0.18 0.18 83 1007.4
20260505191552 15 0 0.0 3.2 6.58 6.58 6.58 79 1007.5
20260505191527 15 220 1.6 4.8 0.10 0.13 0.13 79 1007.5
20260505191523 15 221 1.6 4.8 0.10 0.13 0.13 79 1007.5
20260505190050 16 0 0.0 9.7 3.28 3.28 3.28 73 1007.6
20260505190025 16 234 4.8 14.5 0.05 0.08 0.08 72 1007.6
20260505184548 17 0 1.6 17.7 0.00 0.00 0.00 66 1007.5
20260505184528 17 286 4.8 22.5 0.00 0.03 0.03 65 1007.6
20260505184510 17 253 4.8 24.1 0.00 0.03 0.03 65 1007.6
20260505183053 17 0 0.0 8.0 0.00 0.00 0.00 65 1007.4
20260505183024 17 262 8.0 14.5 0.00 0.03 0.03 64 1007.5
20260505183013 17 259 8.0 14.5 0.00 0.03 0.03 64 1007.5
20260505181556 17 284 4.8 20.9 0.00 0.00 0.00 64 1007.4
20260505181522 17 260 8.0 22.5 0.00 0.03 0.03 63 1007.5
20260505181520 17 263 8.0 20.9 0.00 0.03 0.03 63 1007.5
20260505180050 17 216 8.0 19.3 0.00 0.00 0.00 63 1007.3
20260505180027 17 236 11.3 24.1 0.00 0.03 0.03 62 1007.4
20260505174548 17 347 8.0 19.3 0.00 0.00 0.00 63 1007.2
20260505174527 17 251 8.0 24.1 0.00 0.03 0.03 62 1007.3
20260505174524 17 254 8.0 22.5 0.00 0.03 0.03 62 1007.3
20260505173045 18 322 6.4 19.3 0.00 0.00 0.00 62 1007.1
20260505173027 18 238 8.0 24.1 0.00 0.03 0.03 61 1007.2
20260505173014 18 250 8.0 25.7 0.00 0.03 0.03 61 1007.1
20260505171544 18 307 9.7 20.9 0.00 0.00 0.00 60 1007.0
20260505171517 18 304 9.7 25.7 0.00 0.03 0.03 59 1007.1
20260505170044 18 308 8.0 20.9 0.00 0.00 0.00 60 1006.9
20260505170026 18 239 9.7 24.1 0.00 0.03 0.03 59 1007.0
20260505170022 18 237 11.3 24.1 0.00 0.03 0.03 59 1007.0
20260505164550 18 295 9.7 24.1 0.00 0.00 0.00 59 1006.7
20260505164536 18 219 9.7 32.2 0.00 0.03 0.03 58 1006.8
20260505164523 18 217 11.3 35.4 0.00 0.03 0.03 58 1006.8
20260505163048 18 231 8.0 20.9 0.00 0.00 0.00 57 1006.6
20260505163012 18 252 8.0 27.4 0.00 0.03 0.03 56 1006.7
20260505163008 18 249 8.0 27.4 0.00 0.03 0.03 56 1006.6
20260505161547 19 330 9.7 19.3 0.00 0.00 0.00 56 1006.6
20260505161518 19 229 11.3 27.4 0.00 0.03 0.03 55 1006.6
20260505153050 18 263 9.7 20.9 0.00 0.00 0.00 60 1006.2
20260505153011 18 279 12.9 32.2 0.00 0.03 0.03 58 1006.3
20260505153009 18 283 11.3 30.6 0.00 0.03 0.03 58 1006.3
20260505151548 18 293 8.0 19.3 0.00 0.00 0.00 61 1006.2
20260505151511 18 295 9.7 24.1 0.00 0.03 0.03 62 1006.4
20260505151508 18 290 9.7 25.7 0.00 0.03 0.03 62 1006.3
20260505124550 15 298 11.3 20.9 0.00 0.00 0.00 70 1005.7
20260505124533 15 222 12.9 25.7 0.00 0.03 0.03 70 1005.6
20260505123054 15 290 8.0 20.9 0.00 0.00 0.00 70 1005.5
20260505123021 15 167 8.0 20.9 0.03 0.03 0.03 70 1005.5
20260505123012 15 168 9.7 25.7 0.03 0.03 0.03 70 1005.5
20260505121551 15 210 0.0 9.7 0.00 0.00 0.00 70 1005.7
20260505121527 15 168 11.3 20.9 0.03 0.03 0.03 70 1005.5
20260505121506 15 167 9.7 17.7 0.03 0.03 0.03 70 1005.6
20260505120049 15 0 0.0 14.5 0.00 0.00 0.00 70 1005.4
20260505120010 15 167 3.2 12.9 0.03 0.03 0.03 70 1005.4
20260505120007 15 168 4.8 16.1 0.03 0.03 0.03 70 1005.4
20260505114544 15 264 4.8 19.3 0.00 0.00 0.00 70 1005.5
20260505114516 15 167 4.8 22.5 0.03 0.03 0.03 70 1005.6
20260505114513 15 168 6.4 27.4 0.03 0.03 0.03 70 1005.5
20260505113053 16 238 6.4 17.7 0.00 0.00 0.00 63 1005.0
20260505113022 16 167 6.4 22.5 0.00 0.00 0.00 63 1005.1
20260505113014 16 168 8.0 27.4 0.00 0.00 0.00 63 1005.0
20260505111547 17 230 0.0 14.5 0.00 0.00 0.00 62 1005.0
20260505111523 17 167 6.4 20.9 0.00 0.00 0.00 62 1005.1
20260505111512 17 168 8.0 25.7 0.00 0.00 0.00 62 1005.0